Wind_Speed
12 12 12 12 12 11 11 11 11 11 12 12 12 12 12 12 12 12 13 13 13 14 15 15 16 16 16 15 15 14 13 13 14 14 14 14 14 15 15 15 16 16 16 16 17 17 17 18 18 19 19 19 20 20 20 20 20 20 20 20 20 21 21 21 21 22 22 22 22 23 23 23 23 23 23 23 24 24 24 24 24 24 25 25 25 25
12 12 11 11 11 10 10 10 11 11 11 11 11 11 11 11 12 12 12 13 13 14 15 16 16 16 15 15 14 14 14 15 15 15 15 15 15 15 16 16 16 16 17 17 17 18 18 18 18 19 19 19 19 19 20 20 20 20 20 20 20 21 21 22 22 22 22 23 23 23 23 23 23 23 24 24 24 24 24 25 25 25 25 25 25 25
11 10 9 9 9 9 9 9 9 9 9 9 10 10 11 11 12 12 12 13 13 14 14 15 15 15 15 15 15 15 15 16 17 17 17 17 17 17 17 17 17 17 18 18 18 18 18 18 19 19 19 19 19 19 19 19 20 20 20 21 21 21 22 22 22 23 23 23 23 23 23 24 24 24 24 24 24 25 25 25 25 25 25 25 26 26
10 8 8 8 8 8 8 7 7 7 7 8 9 10 11 11 12 13 13 13 14 14 14 14 14 15 15 15 16 16 17 18 18 18 19 18 18 18 18 18 18 18 18 18 18 18 18 18 19 19 19 19 19 19 19 20 20 20 21 21 21 22 22 22 23 23 23 23 23 23 24 24 24 24 24 24 24 25 25 25 25 25 25 26 26 26
9 7 6 6 6 6 6 6 5 6 6 8 9 10 11 12 13 13 14 14 14 13 14 14 14 15 15 16 17 18 18 19 19 19 19 19 19 19 18 18 18 17 17 17 17 17 17 18 18 18 18 19 19 19 19 20 20 21 21 21 22 22 23 23 23 23 23 23 23 23 24 24 24 24 24 24 24 25 25 25 25 25 26 26 26 27
6 5 5 4 4 4 4 4 4 5 7 8 9 10 11 12 13 14 13 13 13 13 14 14 15 16 16 17 18 18 19 19 18 18 18 18 18 17 16 16 15 15 15 15 16 16 16 17 17 18 18 19 19 19 20 20 21 21 22 22 23 23 24 24 24 24 24 24 23 23 23 24 24 24 24 24 24 25 25 25 25 26 26 26 27 27
4 4 3 3 3 3 3 3 4 5 7 8 9 11 12 13 14 13 13 13 13 14 15 15 16 17 18 18 19 19 19 18 17 16 15 15 14 13 13 12 13 13 14 14 15 15 16 17 18 18 19 19 20 20 21 21 22 23 23 24 24 24 24 24 24 24 24 24 24 23 24 24 24 24 24 24 24 25 25 25 26 26 26 27 27 28
3 3 2 2 2 2 3 3 4 5 6 8 10 12 13 14 13 13 12 12 13 14 15 17 18 19 19 19 20 19 18 17 15 14 13 12 11 11 11 11 12 13 14 15 16 17 18 18 19 20 20 21 22 22 23 23 24 24 24 25 25 25 24 24 24 24 23 23 23 23 24 24 24 24 24 25 25 25 25 26 26 27 27 27 28 28
3 2 1 1 1 2 3 3 4 5 7 8 10 12 13 13 13 12 12 12 13 14 16 18 20 21 21 21 20 19 17 15 13 12 11 11 11 11 12 13 14 15 16 18 19 20 21 21 22 22 22 23 23 24 24 24 24 25 24 24 24 24 24 23 23 23 23 23 23 24 24 24 24 24 25 25 25 26 26 26 27 27 28 28 29 29
2 1 0 1 2 3 3 4 4 6 8 9 10 11 11 12 12 13 13 13 14 15 16 18 20 22 23 22 21 19 15 12 10 10 10 10 11 13 14 16 17 19 20 21 23 23 23 23 23 23 23 23 23 23 23 23 23 23 23 23 23 23 23 23 23 23 23 23 24 24 24 24 25 25 25 26 26 27 27 27 28 28 29 29 30 30
1 0 1 1 2 3 4 5 6 8 9 10 10 10 9 9 10 12 14 15 16 17 17 18 19 20 22 23 21 18 14 12 11 10 10 12 13 15 17 19 21 22 23 24 24 23 23 22 21 21 20 20 20 20 20 20 21 21 21 21 22 22 22 23 23 23 23 24 24 24 25 25 25 26 26 27 27 28 28 28 29 29 30 30 30 31
0 1 1 2 3 4 5 6 7 9 10 10 9 9 8 9 10 11 13 15 17 18 19 19 19 19 20 20 19 16 14 13 13 14 15 16 18 20 22 23 24 25 25 25 24 23 21 20 19 18 18 18 18 18 18 19 19 19 20 20 21 21 22 22 23 23 24 24 24 25 25 26 26 27 27 28 28 29 29 29 30 30 30 30 31 31
2 2 3 3 4 5 5 6 7 8 9 9 9 9 10 11 11 12 12 14 16 18 19 19 20 19 19 17 15 14 13 13 15 17 19 21 22 23 24 25 26 26 26 26 25 23 22 21 20 19 18 18 18 18 18 19 19 19 20 20 21 21 22 23 23 24 24 25 25 26 27 27 27 28 28 28 29 29 29 30 30 30 30 31 31 31
2 3 3 4 4 5 6 7 7 8 8 9 9 10 11 12 13 13 13 14 15 17 18 18 19 19 17 14 12 10 11 13 16 19 22 23 24 24 24 25 25 26 26 25 25 24 22 22 21 21 20 20 20 20 20 21 21 21 21 22 22 23 23 24 25 25 25 26 27 27 28 28 28 28 29 29 29 29 29 30 30 30 31 31 31 32
3 3 3 4 4 5 6 7 8 8 9 10 11 12 12 12 12 12 13 14 15 16 16 17 18 17 14 11 9 9 11 13 17 21 23 24 24 24 23 24 24 25 25 24 24 24 23 22 22 22 22 22 23 23 23 23 23 23 23 24 24 24 25 25 26 26 27 27 27 28 28 28 28 29 29 29 29 29 30 30 30 31 31 31 31 32
3 3 3 4 5 6 7 8 9 10 11 11 12 11 11 11 11 11 12 13 14 15 15 15 15 14 12 10 9 9 12 15 19 21 23 24 25 24 23 23 24 24 24 23 24 24 23 23 23 23 24 24 24 24 24 24 24 24 24 25 25 26 26 27 27 27 27 27 28 28 28 28 28 28 29 29 29 29 30 30 30 30 31 31 31 32
3 3 3 4 6 7 9 9 10 10 11 11 11 10 10 10 11 11 12 13 13 13 13 12 11 10 10 12 11 11 14 17 20 21 22 24 24 24 22 21 22 23 23 23 23 23 23 23 24 24 25 25 25 24 24 24 25 25 26 26 27 27 27 27 27 27 27 28 28 28 28 28 28 28 29 29 29 29 29 30 30 30 30 31 31 31
4 4 4 5 7 8 9 10 10 10 10 10 10 10 10 10 11 11 12 12 12 12 12 12 10 9 9 12 13 14 16 19 20 21 22 22 23 23 21 20 21 22 23 23 23 23 23 24 24 25 25 25 25 25 25 26 26 27 27 27 27 27 27 27 27 27 28 27 28 28 28 28 28 28 28 29 29 29 29 30 30 30 30 31 31 31
6 6 6 7 8 9 10 10 10 9 9 9 10 10 11 11 12 12 12 12 11 11 12 12 12 12 13 14 16 18 18 19 20 20 20 22 23 23 21 20 20 21 22 22 22 23 23 24 26 26 26 26 27 27 27 27 27 27 27 27 27 27 27 27 27 27 27 27 27 27 27 28 28 28 28 28 29 29 29 30 30 30 31 31 31 32
7 7 8 8 9 9 10 9 9 9 9 10 11 11 12 12 12 12 12 12 12 12 12 13 13 14 15 16 18 19 19 19 19 19 20 21 22 22 20 19 19 20 21 22 22 23 24 25 26 27 28 28 28 27 27 26 26 26 27 27 27 27 27 27 27 27 27 27 27 27 27 28 28 28 28 29 29 29 30 30 31 31 31 32 32 32
5 6 6 7 7 8 9 10 10 10 11 11 12 12 12 13 13 12 12 12 13 13 13 13 14 15 16 17 18 19 19 18 17 17 19 20 21 21 19 18 19 21 22 22 23 23 24 25 27 28 28 28 27 27 26 26 26 26 26 26 26 26 26 27 27 27 27 27 27 27 27 28 28 28 29 29 30 30 31 31 31 32 32 32 32 32
6 6 7 8 9 10 11 12 13 13 13 12 12 12 12 13 13 13 13 13 14 14 14 15 16 17 18 18 18 19 18 17 16 16 17 18 20 20 19 18 19 21 22 23 23 24 24 25 26 27 27 27 26 26 26 26 26 25 25 25 25 25 26 26 27 27 27 27 27 27 28 28 29 29 30 30 30 31 31 31 32 32 32 32 32 33
9 10 11 11 12 13 14 14 14 13 12 11 11 12 12 13 14 14 15 15 16 16 17 18 19 19 18 18 17 17 16 15 15 15 15 15 17 20 19 19 19 21 22 23 23 24 25 25 26 26 26 26 26 26 26 26 25 25 25 25 25 26 26 27 27 27 27 28 28 28 29 29 30 30 31 31 31 31 31 31 32 32 32 32 33 33
10 11 12 13 13 13 13 12 11 10 10 10 11 12 13 13 14 15 16 17 17 17 18 18 18 17 16 15 15 14 14 14 13 14 13 14 17 19 19 19 20 21 22 23 24 25 25 26 26 26 26 26 26 26 26 25 25 24 25 25 26 26 27 27 27 28 28 29 29 30 30 30 31 31 31 31 31 31 31 31 32 32 32 33 33 33
11 12 12 12 11 11 10 9 8 8 8 10 11 12 13 14 14 15 15 15 15 15 15 15 15 14 15 15 14 14 14 13 12 13 13 14 17 20 19 19 19 21 23 24 24 25 25 26 26 26 26 27 27 26 26 25 24 24 25 25 26 26 27 27 28 29 29 30 30 31 31 31 31 31 31 31 31 31 31 32 32 32 32 33 33 34
10 11 11 10 9 8 7 6 6 7 8 9 11 12 13 14 15 14 13 12 12 12 13 14 14 15 15 15 14 14 14 13 13 13 14 15 17 19 19 18 18 20 23 25 25 25 25 26 27 27 26 27 27 26 25 24 23 24 24 25 26 27 28 28 29 30 30 31 31 31 31 31 31 31 31 31 31 31 32 32 32 32 33 33 34 34
8 8 8 7 6 6 6 6 7 8 9 10 10 11 12 13 14 13 12 11 12 13 13 13 13 14 15 14 13 14 14 14 14 14 14 15 16 17 18 18 18 20 23 25 25 25 25 25 26 26 26 26 26 25 24 23 23 24 25 26 27 28 29 30 30 31 31 31 31 31 31 31 31 31 31 31 31 32 32 32 32 33 33 33 33 33
7 6 5 5 5 6 6 7 8 9 10 10 10 11 11 12 12 12 12 13 13 13 13 12 11 11 12 13 14 15 15 15 14 14 14 14 14 15 17 18 19 20 22 24 25 25 24 24 25 25 25 25 25 24 24 24 25 25 26 27 28 29 30 30 31 31 31 31 31 31 31 31 31 31 31 32 32 32 32 32 32 32 33 32 31 31
8 8 8 7 7 8 9 9 10 11 11 11 11 11 11 11 12 12 13 14 14 13 12 12 11 11 12 14 16 17 16 14 12 12 12 12 13 15 17 18 18 19 20 23 25 25 23 21 21 22 23 23 23 24 25 26 27 27 28 29 29 30 30 30 30 30 30 30 30 31 31 31 31 31 32 32 32 32 32 32 32 32 31 30 30 30
9 10 10 10 11 11 11 12 12 12 13 13 13 12 12 11 11 12 13 13 12 12 11 11 12 12 13 14 14 13 12 11 10 9 11 12 14 16 18 18 18 18 19 19 18 17 19 21 20 19 20 22 24 25 27 27 28 29 29 30 30 30 29 29 29 29 30 30 30 30 31 31 31 32 32 32 32 32 32 32 31 30 30 29 30 30
9 10 10 11 12 12 12 12 13 13 14 14 14 13 12 11 10 10 10 11 11 11 11 12 12 12 12 11 8 6 6 10 11 11 13 13 15 16 18 18 19 19 17 15 10 7 12 18 21 21 20 23 25 26 27 27 27 28 28 29 29 29 29 29 28 29 29 29 30 30 31 31 31 31 31 32 31 31 31 31 30 30 29 29 30 30
10 10 11 11 12 12 13 13 14 14 14 14 12 11 9 9 8 9 9 10 10 11 11 12 13 13 13 12 9 8 10 14 15 14 15 15 16 17 18 18 18 19 18 16 13 10 8 11 20 25 25 25 26 27 27 27 26 27 27 28 28 29 29 28 28 28 29 29 30 30 30 30 31 31 31 31 31 31 31 31 30 29 28 28 29 30
10 10 11 12 13 14 14 15 15 14 13 12 10 9 8 7 8 8 9 10 10 11 11 12 12 13 13 14 14 15 16 17 17 16 16 15 16 17 18 18 19 19 19 19 18 17 14 16 21 27 27 27 26 26 26 26 26 26 26 27 28 29 29 28 28 29 29 30 30 30 30 30 30 30 30 30 30 30 30 30 29 28 28 28 29 30
10 11 12 13 15 16 16 15 13 12 11 10 9 8 8 8 8 9 10 11 11 12 12 13 13 13 13 14 15 16 18 18 18 18 17 16 16 17 18 19 19 20 20 20 20 20 20 22 23 24 25 27 27 26 25 25 25 25 25 26 27 28 29 29 29 29 30 30 30 29 29 29 29 29 29 29 29 29 29 29 29 28 28 28 30 31
12 13 15 16 16 16 15 13 11 9 9 8 8 8 8 9 10 11 12 13 13 14 15 15 15 15 15 15 16 17 18 19 20 20 19 18 18 18 19 19 19 20 20 20 20 19 20 22 24 24 24 26 27 27 25 24 24 25 25 25 26 27 28 29 29 29 29 29 29 29 29 29 29 29 28 28 28 29 29 30 30 30 30 30 31 32
15 16 17 16 15 13 11 10 9 9 9 9 9 9 10 10 11 12 13 14 15 15 16 16 16 17 17 18 18 19 21 23 23 22 21 21 21 20 19 19 20 20 20 21 21 20 20 22 24 25 24 23 24 25 26 25 25 25 25 25 26 26 27 28 28 28 28 28 28 28 28 28 28 28 29 29 29 30 30 31 31 31 31 31 32 32
16 16 15 14 12 10 9 9 9 9 10 11 11 11 12 12 13 14 14 14 14 13 13 13 14 14 15 17 19 21 23 24 24 24 23 24 24 23 21 21 22 22 21 21 22 22 21 21 23 24 23 22 22 23 26 27 27 26 26 26 26 26 27 27 27 27 27 27 28 28 28 28 28 29 29 30 30 30 31 31 31 31 31 31 32 32
15 14 12 11 9 9 9 9 10 10 11 11 12 12 13 14 14 14 14 13 12 12 12 12 13 14 14 16 18 20 22 23 24 24 24 24 25 25 24 24 24 24 23 22 22 22 22 20 18 17 19 22 24 25 27 27 27 27 27 27 27 26 26 26 26 26 26 27 28 29 29 29 29 29 30 30 30 30 30 30 30 30 30 31 32 33
13 12 10 9 9 8 9 10 10 11 12 12 12 13 14 14 14 14 13 13 12 13 13 14 15 16 17 17 18 20 21 22 23 23 23 23 24 25 26 25 25 25 25 24 23 23 22 21 18 17 18 21 25 27 28 28 27 28 29 29 29 27 25 24 24 25 26 27 28 28 29 28 28 28 29 29 29 29 30 30 30 30 30 31 31 33
12 11 10 9 9 9 9 10 11 11 12 12 13 13 14 14 14 14 13 13 13 14 14 16 17 18 19 19 19 20 21 21 22 22 22 22 22 24 25 26 26 25 25 24 23 23 22 22 23 23 23 23 24 26 28 28 28 28 28 27 27 27 27 26 26 26 26 26 27 27 28 28 29 29 29 29 29 29 30 30 30 31 31 30 30 32
11 10 10 9 9 9 10 10 11 11 12 13 13 14 14 14 14 14 14 14 15 15 16 17 18 19 19 20 20 20 20 21 21 21 21 21 21 22 24 25 25 25 24 23 23 23 22 22 23 24 25 26 26 27 28 28 29 28 28 26 27 29 30 28 27 26 26 26 26 27 28 29 30 30 30 30 30 30 30 31 31 32 32 30 29 29
10 10 10 10 10 10 11 11 11 12 12 12 13 13 13 13 13 14 15 16 16 17 18 18 19 19 19 20 20 20 20 20 20 20 20 20 20 20 21 22 23 22 22 22 23 23 23 22 23 24 25 25 26 26 27 29 29 28 26 26 28 30 30 29 27 25 25 26 27 28 28 29 30 30 30 31 31 31 31 31 32 32 32 30 30 30
10 10 10 10 10 11 11 11 11 11 12 12 13 13 12 12 12 13 15 16 17 18 18 18 18 18 18 19 19 20 20 19 19 19 19 18 18 18 19 19 20 20 21 21 21 22 22 23 23 24 25 25 25 25 26 28 29 29 27 27 27 26 24 27 28 28 27 28 28 28 28 28 29 30 31 31 32 32 31 32 32 32 32 31 32 32
9 9 9 9 10 10 10 10 11 11 12 13 13 13 12 12 12 13 15 16 17 17 18 18 18 18 17 18 19 20 20 19 19 18 17 17 17 17 18 18 19 20 21 21 22 23 24 24 24 24 25 24 24 25 26 27 28 29 28 27 26 25 24 27 30 31 31 30 29 29 28 28 29 31 33 33 33 33 32 32 32 32 32 32 33 33
8 8 8 9 9 9 10 10 11 12 12 13 13 13 12 11 11 12 14 16 17 18 18 18 17 16 16 16 18 19 19 19 19 18 18 17 17 17 18 19 21 22 23 23 23 23 23 24 25 25 25 25 25 25 26 27 27 28 29 28 27 26 28 30 30 29 29 30 30 30 29 29 30 32 33 34 34 34 33 33 32 32 33 33 33 34
9 9 9 9 10 10 10 10 11 12 13 13 13 13 12 11 11 12 14 16 17 17 17 16 15 15 15 16 18 18 19 19 19 19 19 19 19 19 20 21 21 22 23 24 24 25 25 24 25 26 26 26 26 26 25 26 26 26 27 28 28 28 29 29 29 28 28 29 30 31 31 31 31 32 33 34 35 35 35 33 32 32 33 33 34 34
11 11 11 10 10 10 10 10 11 12 13 13 13 12 12 11 11 12 14 15 16 16 16 16 15 15 15 16 17 18 18 19 20 20 20 21 21 21 21 22 22 22 23 23 24 25 25 26 26 27 26 25 25 25 26 25 25 25 26 27 28 28 29 29 30 29 29 29 30 31 32 32 32 32 33 34 35 36 36 34 33 32 32 32 33 34
11 11 11 10 10 9 9 10 11 12 13 13 13 12 12 11 12 13 14 15 16 16 15 15 15 15 16 17 17 18 18 19 20 21 21 21 22 22 23 23 23 23 23 23 24 24 25 25 26 26 26 25 24 24 26 26 26 25 26 27 27 28 28 30 31 30 29 29 30 31 31 31 31 31 32 33 34 35 36 36 35 34 32 32 33 34
10 9 9 9 8 8 9 10 11 12 12 12 12 12 12 12 12 13 15 16 16 15 15 15 15 16 16 17 17 18 18 19 19 20 21 21 22 23 23 24 24 24 24 24 23 22 22 22 22 22 22 23 24 25 27 27 27 26 26 26 26 27 28 30 31 31 30 30 30 31 31 31 30 30 31 31 32 34 37 38 38 36 34 33 32 33
8 8 8 8 8 8 9 10 11 11 11 12 12 12 13 13 13 13 15 15 15 15 15 15 16 16 16 17 18 18 18 19 19 20 20 21 21 22 23 23 23 23 23 22 21 20 20 19 19 18 17 18 20 22 25 26 27 27 27 26 26 27 28 29 31 31 31 31 31 32 31 31 30 29 28 28 30 32 35 37 38 38 36 34 33 33
8 8 8 8 8 9 10 11 11 11 11 12 12 12 12 13 14 14 15 15 15 15 15 16 16 16 16 17 18 18 18 18 18 19 20 21 21 21 21 22 21 21 21 20 20 19 18 17 16 17 17 16 15 17 20 23 25 26 26 27 27 26 26 28 30 31 32 32 32 32 31 31 30 29 27 27 28 30 32 35 38 39 39 37 35 35
Wind_Direction
177 184 192 200 209 219 231 241 249 257 263 267 271 274 276 278 279 281 283 287 290 293 295 297 299 300 300 299 298 297 296 295 295 296 297 299 300 300 299 298 297 296 294 293 292 291 289 288 287 286 286 285 284 284 283 282 282 282 282 282 282 282 282 283 283 282 282 281 280 279 278 277 277 276 275 275 275 274 274 274 274 273 273 273 273 273
183 189 197 207 216 224 235 244 251 256 261 266 270 273 276 278 281 283 285 287 290 292 295 297 298 299 299 298 297 296 296 297 297 297 297 299 299 299 299 298 297 296 295 294 293 292 291 290 289 289 288 287 286 285 284 283 282 282 282 283 283 284 283 284 284 283 282 282 281 280 279 278 277 277 276 275 275 274 274 274 273 273 273 273 272 272
187 195 205 217 226 233 239 245 251 255 260 267 273 277 281 283 285 287 289 290 292 293 295 297 297 298 297 297 297 298 299 300 300 299 298 297 297 297 296 296 295 295 294 294 294 293 292 291 291 290 289 288 287 286 285 284 283 282 283 283 284 284 284 284 284 284 283 282 281 280 279 279 278 277 276 276 275 275 274 274 273 273 273 272 272 272
191 200 213 227 237 242 244 246 250 257 265 272 278 282 284 287 289 292 294 295 296 296 296 296 297 297 298 298 299 300 302 302 301 300 297 295 294 294 293 292 292 293 293 294 293 293 292 292 291 290 290 289 288 287 285 285 284 284 284 284 284 285 285 285 285 284 284 283 282 281 280 279 278 277 277 276 276 275 275 274 274 273 273 273 272 272
198 209 224 238 245 248 246 246 252 262 271 276 280 283 287 290 294 297 299 299 299 299 299 298 298 299 300 301 302 303 304 304 303 300 296 293 291 291 291 291 292 293 295 296 296 295 294 293 293 292 291 290 289 288 287 286 286 285 285 285 286 286 286 286 286 285 284 283 282 281 280 279 278 278 277 277 276 276 275 275 274 274 273 273 273 273
203 216 234 246 251 251 249 248 256 266 273 277 280 285 291 296 301 303 305 304 304 303 302 302 302 302 302 304 305 307 308 307 305 301 297 294 292 290 290 291 293 295 298 299 299 298 297 296 295 294 293 292 291 290 289 288 288 287 287 287 287 287 287 286 286 285 284 283 282 281 281 280 280 279 278 278 277 277 277 276 275 275 274 274 274 273
204 216 234 244 251 255 256 257 262 267 273 281 288 293 298 303 307 309 310 309 308 306 305 304 304 304 305 307 310 312 313 311 307 302 299 296 294 293 293 293 294 296 299 300 301 300 299 298 297 296 295 294 293 291 290 289 289 288 288 288 287 287 287 286 286 285 284 283 283 282 282 281 281 280 280 279 279 278 278 277 276 276 275 275 275 274
194 210 221 237 257 263 260 256 259 267 276 290 300 306 309 310 312 313 312 310 309 309 309 309 309 309 310 313 316 319 320 317 312 307 304 302 300 299 298 296 295 296 297 298 298 298 298 298 297 296 295 294 292 291 290 290 289 289 288 288 288 287 287 286 285 285 284 284 283 283 283 283 282 282 282 281 280 279 279 278 277 277 276 276 276 275
188 200 220 250 276 280 268 258 260 272 286 298 307 313 315 317 317 316 314 312 312 313 315 316 315 315 315 318 321 325 325 322 318 315 313 311 308 306 303 301 299 298 298 298 297 296 296 295 295 294 293 292 291 291 290 290 289 289 289 288 288 287 286 286 286 285 285 285 285 285 285 284 284 283 283 282 281 280 280 279 279 278 278 277 277 276
197 204 268 284 284 286 286 283 283 288 297 305 310 314 317 320 321 320 318 316 316 317 319 319 319 318 318 321 325 329 330 326 322 318 316 313 309 306 305 303 303 302 302 301 300 299 298 296 295 294 293 292 291 290 290 289 289 289 288 288 287 286 285 285 285 285 286 286 286 286 286 285 284 284 283 282 282 281 281 280 280 279 279 278 278 278
201 257 307 297 291 291 294 296 297 299 304 309 313 315 317 322 325 324 322 320 319 320 321 320 319 318 319 322 327 333 335 331 326 321 316 312 309 307 306 306 306 306 306 306 305 304 304 303 301 299 297 295 294 293 293 291 290 290 289 288 287 286 285 285 285 286 287 287 287 287 286 285 285 284 283 283 283 282 282 281 281 280 280 279 279 278
253 297 296 289 289 294 298 300 301 304 310 316 321 324 325 327 327 323 319 317 318 319 321 320 318 318 319 323 329 335 338 334 329 324 319 316 314 313 312 312 312 312 312 312 311 311 312 312 311 309 306 304 301 300 298 297 295 293 291 289 288 287 287 287 288 288 289 288 288 287 286 286 285 285 284 284 283 283 282 282 281 281 280 280 279 279
268 282 286 287 290 296 303 307 311 314 318 323 325 323 322 324 324 320 315 312 314 318 320 319 318 318 320 326 332 336 335 330 324 320 318 317 317 318 318 317 317 317 317 316 316 316 317 317 316 314 311 309 307 305 303 300 298 296 295 293 292 291 291 291 291 290 289 288 288 287 287 286 286 285 285 284 284 283 283 282 281 281 281 280 280 279
265 275 284 291 297 303 307 313 316 317 317 319 320 319 319 320 320 318 313 312 314 318 319 318 317 318 322 329 335 335 329 323 320 318 318 318 319 320 320 319 318 317 318 316 316 317 319 319 317 315 313 311 310 308 306 304 302 301 299 298 296 294 293 291 291 290 289 288 288 287 287 287 286 286 285 285 284 284 283 283 282 282 281 281 281 280
262 278 292 301 305 307 309 312 313 312 312 315 318 319 320 319 318 318 317 316 318 319 320 319 318 319 321 327 333 331 325 322 322 323 322 320 320 320 320 318 317 316 316 315 314 316 318 317 316 315 314 313 311 310 308 306 303 301 298 296 294 293 292 291 290 290 289 289 288 288 287 287 286 286 286 285 285 285 284 284 283 283 283 282 282 281
264 282 300 307 305 304 304 305 306 306 308 313 315 316 315 315 317 320 321 320 320 321 322 322 322 320 320 323 326 326 325 325 327 326 322 318 318 319 319 318 316 314 314 313 313 314 316 315 314 313 312 311 310 308 305 302 299 296 295 293 292 292 291 291 290 290 289 289 289 288 288 287 287 287 286 286 286 286 286 286 285 285 284 283 283 282
270 284 298 303 300 298 298 300 300 302 305 309 311 312 312 313 317 320 320 319 319 320 320 321 321 319 317 317 318 321 326 328 327 324 319 314 314 316 318 317 314 311 311 310 311 312 313 312 311 309 308 307 306 303 300 297 295 294 293 292 292 292 291 291 291 290 290 289 289 288 288 288 288 288 288 288 287 287 287 287 286 286 285 285 284 283
276 286 296 294 291 290 291 291 293 297 302 305 307 309 310 312 315 316 315 315 316 315 314 314 311 308 309 310 311 315 323 325 324 321 316 311 311 314 316 316 312 309 308 308 308 309 309 308 307 306 305 303 301 299 297 295 294 294 293 293 292 292 292 291 291 290 290 290 289 289 289 289 289 289 289 289 289 288 288 288 288 287 287 286 285 284
276 282 283 277 278 281 283 283 286 291 296 302 306 308 307 309 310 311 310 309 309 307 306 304 301 299 300 299 303 310 317 320 320 317 313 309 308 311 315 315 311 308 305 305 306 307 307 306 305 304 303 301 300 298 297 296 295 294 294 293 293 292 292 291 291 290 290 290 290 290 290 290 290 290 290 290 290 290 289 289 289 288 288 287 286 285
269 273 271 269 272 277 279 281 285 291 297 303 305 304 303 305 306 306 305 304 302 299 297 295 293 294 296 298 302 308 314 318 318 316 311 307 306 309 313 314 312 308 305 304 304 305 305 305 304 304 303 302 301 300 299 298 296 295 294 294 293 292 292 291 291 291 291 291 291 291 290 290 290 291 291 291 291 291 291 290 290 290 289 288 287 286
279 278 276 278 277 277 281 286 291 295 299 301 301 299 299 301 302 301 301 299 297 294 293 289 288 291 295 296 299 304 311 316 318 315 311 307 306 307 312 314 312 308 305 304 305 306 305 304 303 303 303 302 301 301 300 298 297 296 295 294 293 292 292 292 292 291 291 291 291 291 291 291 291 292 292 292 292 292 292 291 291 290 289 289 288 287
301 293 286 284 283 282 284 288 293 296 298 298 296 294 296 298 298 297 296 295 292 290 289 287 287 289 291 292 295 303 310 316 317 314 310 306 304 305 311 314 312 309 305 305 306 307 306 304 303 302 302 300 300 300 300 299 298 296 295 294 293 293 292 292 292 291 291 291 292 292 292 292 292 293 293 293 293 292 292 291 291 290 289 289 288 288
285 284 283 283 284 285 287 291 294 297 299 299 299 298 298 296 293 292 291 290 288 287 287 288 290 291 292 295 299 306 312 315 315 313 309 303 301 304 310 314 312 308 304 304 306 308 307 304 302 301 300 300 299 299 299 298 297 296 294 293 292 292 291 291 291 291 292 292 292 292 292 293 293 293 293 293 292 292 292 291 291 290 290 289 289 288
284 286 287 287 287 287 287 290 294 299 302 304 305 305 303 301 298 296 294 293 291 289 290 293 295 297 299 302 305 307 310 311 312 310 305 298 297 301 307 311 311 307 304 304 306 308 306 304 302 300 300 299 298 298 298 296 294 293 291 291 290 290 290 290 291 291 291 292 292 292 292 293 293 293 292 292 292 292 291 291 291 290 290 290 289 289
291 290 290 290 288 287 287 291 296 302 306 308 309 310 311 310 308 306 305 302 299 298 300 303 303 303 304 305 305 305 307 309 310 307 301 297 296 299 304 308 308 306 304 306 307 307 306 303 302 301 300 299 298 298 298 296 294 292 290 289 289 290 290 290 290 291 291 291 292 292 292 292 292 292 292 292 292 292 291 291 291 291 291 290 290 290
291 292 293 292 289 287 287 287 290 295 302 305 308 311 312 312 311 311 309 308 310 313 314 311 306 303 304 305 305 305 307 309 308 303 297 294 295 298 302 307 307 306 305 306 308 307 306 304 302 301 299 298 298 298 298 297 295 292 290 290 290 290 290 290 290 290 291 291 291 291 291 291 292 292 292 292 292 292 292 292 292 292 292 292 292 291
285 290 293 292 288 283 283 284 288 294 300 302 303 305 307 308 309 310 307 307 311 314 312 307 303 303 304 304 303 304 307 307 305 300 295 291 291 295 301 306 308 307 306 306 306 306 304 302 300 299 298 298 299 300 301 299 297 294 292 291 290 290 290 290 291 291 291 291 291 291 291 291 292 292 292 292 293 293 293 293 293 293 293 293 293 292
273 275 277 278 280 281 286 290 293 296 299 301 302 302 303 304 304 303 300 302 306 308 304 299 299 301 303 303 302 304 306 304 301 299 298 291 289 292 299 305 308 308 308 307 307 305 302 299 298 298 298 300 301 303 302 301 298 295 293 292 291 291 291 291 291 292 293 292 292 292 292 292 293 293 293 293 293 293 293 293 294 294 295 294 293 292
263 264 266 270 275 281 287 289 291 293 297 300 302 302 300 298 296 295 296 300 304 303 298 295 295 297 299 301 302 304 304 302 302 304 307 299 292 293 301 306 308 309 310 310 310 308 304 300 299 299 301 302 303 303 302 301 299 296 294 293 293 292 292 291 291 292 294 294 293 293 293 293 293 293 293 294 294 294 294 294 295 295 295 294 293 291
266 267 269 272 276 280 284 288 292 296 300 301 301 299 296 292 290 292 295 300 303 302 296 295 295 296 299 303 304 304 303 304 308 315 315 307 300 299 304 307 307 308 312 314 314 311 308 305 304 303 304 304 304 303 302 300 299 297 296 296 295 294 293 293 292 292 293 293 293 293 294 294 294 294 294 294 294 294 294 294 295 295 294 293 292 291
284 286 287 287 288 289 292 296 300 301 302 300 298 296 294 291 291 293 297 299 302 302 297 295 294 294 296 300 302 301 299 302 307 313 314 308 301 300 305 306 305 306 308 310 311 312 310 309 308 307 306 305 303 302 301 300 298 298 297 296 296 295 294 294 294 294 294 293 293 294 294 294 294 294 293 293 293 293 293 294 294 294 293 292 291 290
299 300 300 301 301 302 303 304 304 302 300 297 295 293 292 291 293 295 297 298 298 298 298 295 293 291 289 287 283 281 286 294 299 305 308 303 299 299 302 302 302 303 304 301 296 293 299 303 305 306 306 304 303 301 301 300 298 298 298 297 296 295 295 296 296 295 295 294 294 294 294 294 294 293 293 293 293 293 293 293 293 292 291 290 289 289
296 297 298 300 301 302 303 303 302 300 298 296 294 293 292 291 292 293 295 295 296 296 297 295 293 290 288 284 280 280 283 288 293 298 302 300 298 298 299 300 300 301 302 299 294 288 286 290 297 302 303 302 301 300 300 300 299 298 298 297 296 296 297 297 297 296 295 295 295 295 294 294 294 293 293 293 293 292 292 292 291 290 289 287 287 288
288 291 294 297 299 301 302 302 301 299 297 296 296 296 296 295 293 292 292 292 291 291 292 293 291 290 289 288 285 284 284 286 290 295 298 297 295 295 297 298 298 300 302 301 298 294 290 290 293 298 301 302 301 300 299 299 299 298 298 297 297 297 298 298 298 297 296 296 296 295 295 294 294 294 293 293 292 292 291 291 290 288 287 285 286 287
286 291 295 299 301 303 304 304 303 302 301 302 302 302 302 300 297 295 292 291 289 288 287 286 286 285 285 286 286 286 286 287 291 296 298 294 293 293 295 294 296 298 299 299 299 297 295 294 295 296 299 301 301 300 299 299 299 299 299 298 297 296 297 297 297 296 296 296 295 295 295 295 294 294 293 293 292 292 291 290 289 288 286 284 284 283
292 296 299 302 304 307 309 310 310 310 310 310 310 309 308 305 302 299 296 293 291 289 286 284 283 282 281 280 280 281 283 288 294 298 297 293 291 290 291 291 292 294 295 295 295 296 296 296 297 297 298 299 300 301 302 302 302 301 300 299 298 297 296 296 296 296 295 294 294 294 295 295 294 294 293 292 292 291 291 290 289 288 286 284 282 280
296 299 302 305 308 311 313 313 313 313 314 314 314 314 312 309 306 304 302 300 299 297 294 292 289 286 284 282 282 283 285 291 296 297 297 295 292 289 286 286 289 290 289 290 292 294 294 296 297 298 297 296 297 300 303 305 305 304 301 300 300 299 298 297 296 295 294 294 294 294 295 295 294 294 293 293 293 292 291 290 289 288 286 284 282 279
296 298 302 306 310 311 310 310 310 312 313 314 315 314 313 312 311 311 311 312 311 309 307 304 301 297 294 291 290 290 292 294 297 299 300 298 295 290 285 285 286 287 285 285 287 289 291 293 296 298 298 297 296 297 300 303 304 304 303 302 301 299 298 297 297 296 295 295 294 295 294 295 294 294 294 294 294 293 292 291 290 289 288 286 283 281
292 294 298 302 304 305 305 306 307 310 312 313 313 313 313 313 314 316 316 317 316 314 311 308 306 303 301 299 298 297 297 298 300 302 304 303 299 294 288 284 283 284 285 284 284 285 286 287 289 291 295 297 298 299 300 301 301 302 303 304 303 301 299 299 299 298 296 295 295 295 296 296 295 295 294 294 294 293 293 292 291 290 289 288 286 284
288 290 292 294 295 297 299 302 305 308 310 311 311 312 312 313 315 315 316 316 314 313 312 310 308 306 304 303 302 302 302 303 304 305 306 305 303 298 292 286 283 284 286 286 285 284 283 284 286 288 290 293 295 298 299 299 300 301 304 305 304 302 302 302 301 299 298 297 296 296 297 298 297 297 295 294 293 293 292 291 291 290 289 288 286 285
284 285 286 287 289 292 295 300 304 308 309 310 310 311 313 315 317 318 317 316 315 314 314 313 311 309 307 305 304 304 305 305 306 306 306 306 304 300 295 290 287 286 287 287 287 286 284 285 286 289 290 292 294 295 296 296 298 300 302 301 300 300 301 302 301 301 300 299 298 298 299 299 299 298 297 296 294 292 291 290 290 289 288 285 281 280
280 279 281 283 286 290 295 301 305 308 309 310 311 313 315 317 318 318 318 316 315 316 318 317 314 310 307 305 304 304 304 305 307 308 307 306 304 301 299 296 294 292 291 289 288 288 288 288 289 290 291 293 294 295 295 295 297 298 299 298 299 301 303 303 304 304 303 302 301 301 300 300 299 299 298 297 295 294 292 290 288 287 286 283 280 277
280 279 280 284 286 291 296 302 305 308 311 313 314 315 316 318 319 318 316 314 314 315 316 316 314 310 306 304 303 304 304 306 308 308 306 306 305 304 303 302 301 300 297 293 292 293 293 292 290 289 290 291 292 292 293 294 297 298 298 298 299 302 304 305 306 306 305 303 302 302 301 300 300 300 299 297 296 295 293 290 288 286 284 281 279 277
281 281 282 285 288 292 297 302 306 311 314 316 317 317 317 318 317 316 315 313 313 314 315 316 314 310 305 303 303 304 306 307 308 307 306 306 305 304 303 302 302 301 299 296 295 295 296 294 291 289 290 290 290 290 290 292 295 297 297 298 298 297 296 299 303 305 305 304 303 303 302 301 302 302 301 299 297 295 293 291 288 286 283 280 278 276
283 284 286 289 293 297 301 304 307 311 314 315 316 316 317 317 316 315 315 315 315 316 316 316 313 309 304 304 305 307 308 309 309 309 308 308 306 304 303 302 301 300 298 296 293 292 291 291 291 291 292 291 289 287 288 290 292 295 297 298 298 296 295 298 300 302 303 304 304 304 304 304 304 303 302 300 297 295 293 291 289 286 284 281 278 275
287 289 292 294 296 297 298 301 305 309 312 314 314 315 316 317 316 316 316 317 316 316 315 314 309 305 302 303 306 308 309 310 310 311 310 310 309 308 306 304 303 302 300 298 295 292 289 287 288 291 293 293 291 288 286 288 290 293 295 298 299 300 300 301 301 302 302 303 304 304 305 306 305 303 301 299 298 296 294 291 288 286 284 282 280 278
287 289 291 293 294 294 295 298 303 308 311 312 313 313 315 317 317 317 317 317 316 314 312 310 306 302 300 301 303 305 306 308 309 311 311 311 311 311 310 309 307 305 303 300 298 296 292 288 287 288 288 289 289 289 289 290 290 292 294 298 300 301 302 302 303 303 303 303 303 304 305 306 305 303 300 299 298 297 295 292 289 286 284 282 281 279
284 286 289 291 293 294 296 300 304 308 309 309 310 312 314 316 316 316 315 315 313 311 308 306 304 301 299 300 301 301 302 303 305 308 310 312 313 314 314 313 312 310 307 304 302 298 294 291 288 285 282 281 282 286 289 291 291 292 294 297 300 301 301 302 304 305 304 303 302 302 303 303 302 301 300 299 298 296 295 294 292 290 287 284 282 281
282 284 287 289 292 296 300 303 305 306 306 306 306 308 311 314 314 313 312 311 310 307 304 302 301 300 299 299 300 301 301 302 303 306 309 312 314 316 316 316 315 314 312 310 306 302 298 295 291 287 283 278 276 279 285 289 292 294 296 298 300 301 301 302 304 305 305 304 302 301 301 299 297 296 296 296 295 294 295 295 294 293 291 288 285 283
281 283 287 291 297 302 305 306 305 304 302 302 302 304 308 311 312 312 311 309 306 304 301 299 298 297 297 298 300 301 302 303 304 306 310 313 315 316 316 317 317 317 315 314 312 310 308 305 301 296 291 284 280 280 284 289 295 298 300 301 301 301 302 303 304 305 305 304 303 302 300 299 297 294 293 292 292 293 295 296 296 295 295 293 291 288
279 283 289 297 303 306 306 304 302 300 298 299 301 302 304 306 308 309 308 306 304 301 299 298 296 294 295 297 298 300 301 302 304 307 311 314 316 316 316 316 317 318 317 316 315 315 315 313 311 308 305 300 294 290 290 294 298 302 303 303 303 303 303 303 304 304 304 304 303 302 300 299 298 296 294 293 293 294 295 296 296 297 297 297 296 293
Height
803 803 804 804 805 805 806 806 806 806 806 806 806 806 805 805 805 805 804 804 804 803 802 802 801 800 800 799 799 798 798 797 797 796 796 795 795 794 794 793 793 792 792 791 791 790 790 789 789 788 788 787 787 786 786 785 785 784 784 784 783 783 782 781 781 780 780 779 779 778 778 777 776 776 775 775 774 774 773 773 772 772 771 771 770 770
802 803 803 804 804 804 805 805 805 805 805 805 805 805 804 804 804 804 804 803 803 802 801 800 800 799 799 798 798 797 797 796 796 795 794 794 794 793 792 792 791 791 790 789 789 789 788 788 787 787 786 786 785 785 784 784 783 783 782 782 781 780 780 779 779 778 778 777 776 776 775 775 774 774 773 773 772 772 771 771 770 770 769 769 768 768
801 802 802 803 803 804 804 804 804 804 804 804 804 804 804 803 803 803 802 802 801 801 800 799 799 798 797 797 797 796 796 795 794 794 793 793 792 791 791 790 789 789 788 788 787 787 786 786 785 785 784 784 784 783 782 782 781 781 780 780 779 779 778 777 777 776 775 775 774 774 773 773 772 772 771 771 770 769 769 769 768 768 767 767 766 766
801 801 801 802 802 803 803 803 803 803 803 803 803 803 802 802 802 801 801 800 800 799 799 798 798 797 796 796 795 795 794 794 793 792 791 791 790 789 789 788 788 787 786 786 785 785 784 784 784 783 783 782 782 781 781 780 780 779 779 778 777 777 776 775 775 774 773 773 772 772 771 771 770 769 769 769 768 768 767 766 766 765 765 764 764 764
800 800 801 801 801 802 802 802 802 802 802 802 802 802 801 801 800 800 799 799 799 798 797 797 796 796 795 794 794 794 793 792 791 790 789 789 788 787 787 786 786 785 785 784 784 783 783 783 782 782 781 781 780 779 779 779 778 777 777 776 775 775 774 773 773 772 771 771 770 769 769 769 768 768 767 766 766 765 765 764 764 763 763 762 762 761
799 799 800 800 800 801 801 801 801 802 801 801 801 800 800 800 799 799 798 798 797 796 796 795 795 794 794 793 793 792 791 791 790 789 788 787 786 785 785 784 784 784 783 783 783 782 782 781 781 780 779 779 779 778 777 777 776 775 775 774 773 773 772 771 770 770 769 769 768 768 767 766 766 765 765 764 764 763 763 762 761 761 760 760 759 759
798 799 799 799 799 800 800 800 801 801 800 800 800 799 799 799 798 797 797 796 796 795 794 794 794 793 793 792 791 791 790 789 788 787 786 785 785 784 784 783 783 782 782 782 781 781 780 780 779 779 778 777 777 776 775 774 774 773 773 772 771 770 769 769 768 768 767 766 766 765 765 764 764 763 763 762 761 761 760 760 759 759 758 757 757 756
798 798 798 799 799 799 799 800 800 800 799 799 799 798 798 797 797 796 796 795 794 794 793 793 792 792 791 790 790 789 788 787 786 785 784 784 783 783 782 782 781 781 780 780 779 779 779 778 777 776 776 775 774 774 773 772 772 771 770 769 769 768 767 767 766 765 765 764 764 763 763 762 761 761 760 760 759 759 758 758 757 756 756 755 754 754
797 797 797 798 798 798 799 799 799 799 799 798 798 797 796 796 795 795 794 794 794 793 792 791 790 789 789 789 788 788 787 786 784 784 783 783 782 782 781 780 780 779 779 779 778 777 776 776 775 774 773 773 772 771 770 770 769 769 768 767 766 766 765 764 764 763 763 762 762 761 760 760 759 759 758 758 757 757 756 755 755 754 754 753 752 751
796 796 797 797 797 797 798 798 798 798 798 797 797 796 796 795 794 793 793 793 792 792 791 791 789 788 787 787 787 786 785 784 784 783 783 782 781 781 780 779 779 778 778 777 776 775 774 773 773 772 771 770 769 769 768 767 767 766 765 764 764 763 763 762 762 761 760 760 759 759 758 758 757 757 756 756 755 754 754 753 752 752 751 750 749 749
795 795 796 796 796 796 797 797 797 797 797 796 796 795 795 794 794 793 792 791 791 790 790 790 789 788 787 785 785 784 784 783 782 782 782 781 781 780 779 779 778 777 776 775 774 773 772 771 770 769 769 768 767 767 766 765 764 764 763 763 762 761 761 760 759 759 759 758 758 757 756 756 755 755 754 754 753 752 751 751 750 749 748 748 747 746
795 795 795 795 795 796 796 796 796 796 796 795 795 794 794 794 794 793 792 791 790 789 789 789 788 788 787 785 784 783 783 782 781 780 780 779 779 778 777 776 775 774 774 772 771 771 770 769 769 768 767 766 765 765 764 764 763 762 761 761 760 759 759 758 758 757 757 756 756 755 754 754 753 753 752 751 750 750 749 748 747 747 746 745 744 743
794 794 794 794 795 795 795 795 795 795 795 794 794 794 793 793 793 793 792 791 790 789 789 787 787 786 785 785 784 783 782 781 780 779 779 778 777 776 775 774 773 772 771 770 769 769 768 767 767 766 765 764 764 763 763 762 761 760 759 759 758 758 757 756 756 755 755 754 754 753 753 752 751 750 749 749 748 747 746 746 745 744 743 742 741 740
794 794 794 794 794 794 794 794 794 794 794 794 794 793 793 792 792 792 791 790 790 789 788 787 786 785 784 784 783 782 781 780 779 778 777 776 776 775 774 773 771 770 769 769 767 767 766 766 765 764 764 763 762 761 761 760 759 758 758 757 756 756 755 755 754 754 753 752 752 751 750 749 749 748 747 746 745 745 744 743 742 741 740 739 739 738
793 793 793 793 793 793 794 794 794 794 794 793 793 792 792 792 791 791 790 790 789 788 788 786 785 784 784 783 783 782 781 780 779 777 775 774 774 774 773 772 770 769 768 767 766 765 765 765 764 763 762 761 760 760 759 758 757 757 756 755 755 754 754 753 752 752 751 750 749 749 748 747 746 745 745 744 743 742 741 740 739 739 738 737 736 735
793 792 792 792 792 793 793 794 794 794 793 793 792 792 791 791 791 790 790 789 789 788 787 786 784 783 782 782 782 781 780 779 778 777 775 773 772 772 772 771 769 768 767 766 765 764 764 763 762 761 760 759 759 758 758 757 756 755 755 754 753 753 752 751 750 749 749 748 747 746 746 745 744 743 742 741 740 739 739 738 737 736 735 734 733 732
792 791 791 791 791 792 793 793 793 793 792 792 791 791 791 790 790 790 789 789 788 788 787 786 785 784 781 781 781 781 780 779 778 776 775 772 771 771 771 770 768 766 765 765 764 763 763 762 761 760 759 758 758 757 756 755 754 754 753 752 751 750 749 749 748 747 746 746 745 744 743 743 742 741 740 739 738 737 736 735 734 733 732 731 730 729
791 790 790 790 791 792 792 793 793 792 791 791 790 790 790 790 790 789 789 789 788 788 787 786 786 784 783 781 780 780 779 779 777 776 774 772 770 769 769 769 768 766 764 764 763 762 762 761 760 759 758 757 756 755 754 754 753 752 751 750 749 748 747 746 746 745 744 744 743 742 741 740 739 738 737 736 735 734 733 732 731 730 729 728 727 726
789 789 789 790 791 791 792 792 792 791 791 790 789 789 789 789 789 789 789 788 788 788 787 786 785 784 783 781 779 779 779 779 777 775 774 771 769 768 768 768 767 765 764 763 762 761 760 759 759 758 757 756 754 754 753 751 750 749 749 748 747 746 745 744 744 743 742 741 741 740 739 738 737 736 735 734 733 732 731 729 729 727 726 725 724 723
788 788 789 790 790 791 791 791 790 790 790 789 789 789 788 788 788 788 788 787 787 787 786 785 784 783 782 780 779 779 779 778 777 775 773 770 768 767 767 767 766 764 763 761 761 760 759 758 757 756 755 754 753 751 750 749 749 748 747 746 745 744 743 743 742 741 740 739 739 738 737 736 734 734 732 731 730 729 728 727 726 724 723 722 721 720
787 788 789 790 790 790 790 789 789 789 789 788 788 788 787 787 787 787 786 786 786 785 785 784 783 782 781 779 779 778 778 777 776 775 772 769 767 766 766 766 765 763 761 760 759 759 758 757 755 754 753 752 751 749 749 748 747 746 745 744 743 742 741 741 740 739 738 737 736 735 734 733 732 731 730 729 728 726 725 724 723 721 720 719 718 717
788 788 789 790 790 789 789 789 788 788 788 787 787 787 786 786 786 785 785 785 784 784 783 782 781 780 780 779 778 777 777 777 776 775 773 769 766 765 765 765 764 763 760 759 758 757 757 755 754 752 751 750 749 748 747 746 745 744 743 742 741 740 739 739 738 737 736 735 734 733 732 731 730 729 728 726 725 724 723 721 720 719 717 716 715 714
788 788 789 789 789 789 788 787 787 787 787 786 786 786 786 785 785 784 784 784 783 782 781 780 779 779 778 778 777 777 776 776 776 775 773 770 766 764 764 764 764 762 760 758 757 756 755 754 752 751 750 749 747 746 745 744 743 742 741 740 739 739 738 737 736 735 734 733 732 731 730 729 728 726 725 724 722 721 720 719 717 716 714 713 712 710
788 788 788 788 788 787 786 786 786 785 785 785 785 785 784 784 784 783 783 782 781 781 780 779 778 778 777 777 776 776 776 775 775 774 773 770 767 764 764 764 763 761 759 757 756 755 753 752 750 749 748 747 745 744 744 743 742 741 740 739 738 737 736 735 734 733 732 731 730 729 728 726 725 724 722 721 720 719 717 716 714 713 712 710 709 707
787 787 787 786 786 786 785 785 785 785 784 784 784 784 784 783 783 782 782 781 781 780 779 779 778 777 776 776 775 775 775 774 774 774 773 770 766 764 764 764 763 761 758 756 755 754 752 750 748 747 746 744 744 743 742 741 740 739 738 737 736 735 734 733 732 731 729 729 727 726 725 724 722 721 720 719 717 716 715 713 712 710 709 707 706 704
786 786 786 785 785 784 784 784 784 784 784 784 784 783 783 783 782 782 781 781 780 780 779 778 777 776 775 775 774 774 774 773 773 773 772 770 766 764 763 763 763 761 758 755 754 753 751 749 746 745 744 743 741 741 740 739 738 737 736 735 734 733 732 731 729 728 727 726 725 724 722 721 720 719 717 716 714 713 712 711 709 708 706 704 703 701
785 785 785 784 784 784 784 784 783 783 783 783 783 783 782 782 781 781 780 780 780 779 779 778 776 775 774 774 773 773 772 772 772 771 771 769 767 764 763 763 762 760 758 754 753 752 750 748 745 743 742 740 739 739 738 737 736 735 734 733 732 731 729 728 727 726 724 723 722 721 719 718 717 716 714 713 712 710 709 708 706 705 703 702 699 697
784 784 784 783 783 783 783 782 782 782 782 782 782 782 781 781 780 780 779 779 779 779 778 778 776 775 774 773 772 772 771 771 770 770 769 769 767 764 762 762 761 760 758 754 751 749 749 746 744 742 740 739 738 737 736 735 734 733 732 731 730 728 727 726 724 723 722 721 719 718 717 715 714 713 712 710 709 708 706 705 704 702 700 699 696 694
783 783 782 782 782 781 781 781 781 781 781 781 781 781 780 780 780 779 779 778 778 778 777 777 776 775 774 772 771 770 770 770 769 769 769 768 766 764 762 762 761 759 758 754 750 747 745 744 743 741 739 737 736 735 734 733 732 731 729 728 727 725 724 723 722 720 719 718 717 715 714 713 712 710 709 708 706 705 704 702 701 700 698 696 694 691
781 781 781 781 781 780 780 780 780 779 779 779 779 779 779 779 779 778 778 778 777 777 776 775 775 774 774 772 770 769 768 768 769 769 768 767 765 763 762 761 760 759 758 756 751 746 742 741 741 740 739 737 735 734 733 731 730 729 727 725 724 723 721 720 719 718 716 715 714 713 711 710 709 708 706 705 704 702 701 700 699 698 695 693 691 689
780 780 780 780 779 779 779 779 779 779 779 779 778 778 778 778 777 777 777 777 776 776 775 774 774 774 773 773 771 769 767 767 768 768 768 767 764 763 762 761 759 759 759 758 754 749 742 738 737 738 738 736 734 733 731 730 728 727 725 723 722 720 719 718 717 715 714 713 712 710 709 708 706 705 704 702 701 699 699 698 697 695 694 691 689 686
779 779 779 779 779 778 778 778 778 778 778 777 777 777 777 776 776 776 776 775 775 775 774 774 773 773 773 772 771 769 767 766 767 768 768 767 764 762 761 760 759 757 757 757 757 754 748 740 735 734 735 735 733 731 729 728 727 725 724 722 720 718 717 716 715 714 712 710 709 708 706 705 704 702 701 699 698 697 696 695 694 694 692 689 687 684
779 778 778 778 778 778 777 777 777 777 776 776 776 776 775 775 775 775 775 774 774 774 773 773 772 772 771 771 770 769 767 766 766 767 767 766 764 762 760 759 758 757 755 755 754 753 750 744 739 735 733 732 731 730 728 726 725 724 722 721 719 717 715 714 713 712 710 708 706 705 704 702 701 699 698 697 696 694 693 693 692 691 690 688 685 682
778 778 777 777 777 777 776 776 776 775 775 775 775 774 774 774 774 774 774 773 773 773 772 772 772 771 770 769 768 767 766 765 765 766 766 765 764 762 760 759 757 756 754 753 752 750 748 744 740 737 733 729 728 728 727 725 723 722 721 719 718 715 714 713 711 709 708 706 704 702 701 699 698 697 695 694 693 692 691 690 689 688 688 686 684 681
777 777 776 776 776 775 775 775 775 774 774 774 774 774 773 773 773 772 772 772 772 771 771 771 770 770 769 769 768 766 764 764 764 764 765 764 763 761 759 758 757 755 754 752 750 748 745 742 740 737 734 729 726 724 724 724 722 720 719 718 716 714 712 711 709 707 705 704 702 700 698 697 695 694 693 691 690 689 688 687 686 685 684 683 682 680
776 776 775 775 775 774 774 774 774 773 773 773 773 772 772 772 771 771 771 770 770 770 769 769 769 769 769 768 767 765 764 763 763 763 763 763 762 761 759 757 755 755 754 751 749 747 744 741 738 736 734 730 725 722 720 720 720 719 717 716 714 713 711 709 708 706 704 701 699 698 696 694 693 691 690 689 687 686 685 684 682 681 680 679 678 677
775 774 774 774 774 774 773 773 773 772 772 772 771 771 771 770 770 769 769 769 769 768 768 768 768 767 767 766 766 764 763 762 762 761 761 761 761 760 758 756 754 754 753 751 748 746 744 740 737 734 732 729 726 722 719 717 717 716 714 713 712 710 708 707 705 704 702 699 698 695 694 692 691 689 687 686 684 683 681 680 679 678 676 675 673 672
774 774 774 773 773 773 773 772 772 772 771 771 770 770 769 769 769 769 768 768 767 767 767 766 766 766 765 765 764 763 762 761 760 760 759 759 759 758 757 754 753 752 751 750 748 745 743 740 737 733 729 727 724 722 720 717 715 713 711 710 709 708 706 705 703 702 700 698 695 693 692 690 688 686 684 683 681 680 678 676 675 674 672 670 669 667
773 773 773 773 772 772 772 771 771 771 770 770 769 769 769 768 768 767 767 767 766 766 765 765 764 764 764 763 763 762 761 760 759 758 758 757 757 756 755 753 751 749 749 748 747 745 743 740 737 734 730 726 722 720 718 717 715 712 709 707 706 705 704 703 701 700 698 695 693 691 689 687 686 684 682 680 679 677 675 673 671 670 669 667 664 662
772 772 772 772 772 771 771 771 770 770 769 769 769 768 768 767 767 766 766 765 765 765 764 764 763 763 762 761 761 760 759 758 758 757 756 755 755 754 753 751 749 748 747 746 745 744 742 739 736 734 731 727 723 719 717 715 714 712 710 707 703 701 700 700 699 697 695 694 691 689 687 685 683 682 680 678 676 674 672 670 668 666 665 664 661 658
771 771 771 771 771 770 770 770 769 769 769 768 768 767 767 766 766 765 765 764 764 764 763 763 762 761 760 759 759 758 758 757 756 755 754 754 753 752 751 750 748 747 746 744 743 742 740 738 735 732 730 727 724 720 716 714 712 711 710 707 703 699 698 697 696 695 693 691 689 687 685 683 681 679 677 675 673 671 670 668 665 663 661 660 658 655
770 770 770 770 770 769 769 769 769 768 768 767 767 767 766 766 765 765 764 764 763 762 762 761 760 759 759 758 757 757 756 755 755 754 753 752 751 750 749 748 747 746 745 743 741 740 739 737 734 732 729 726 723 719 715 712 710 710 709 706 703 699 695 694 693 693 691 689 687 685 684 681 679 676 674 672 670 668 666 664 662 660 658 656 654 651
769 769 769 769 769 769 768 768 768 767 767 767 766 766 765 765 765 764 764 763 762 762 761 760 760 759 758 756 755 754 754 754 753 752 752 751 750 749 748 747 746 745 744 742 740 738 736 735 733 731 728 726 723 720 715 711 709 707 706 705 703 699 695 690 689 689 689 687 685 683 681 679 676 674 671 669 666 664 662 660 659 656 654 652 649 647
769 769 768 768 768 768 767 767 767 767 766 766 765 765 765 764 764 764 763 763 762 761 760 760 759 758 757 755 754 753 752 752 751 751 750 749 749 748 747 746 745 744 743 742 739 737 734 733 731 729 727 725 722 719 715 711 708 705 704 703 702 700 696 692 689 687 685 684 682 681 679 677 674 671 668 666 663 661 659 656 654 652 650 648 645 642
768 768 767 767 767 767 767 766 766 766 765 765 765 764 764 764 764 763 763 762 761 760 760 759 759 758 756 755 753 752 751 750 749 749 749 748 748 747 746 745 744 743 741 740 739 737 734 731 728 726 724 723 721 718 714 711 707 704 702 700 699 697 694 691 689 687 684 681 679 678 677 675 673 669 666 662 659 656 654 652 650 647 645 643 640 638
767 767 767 766 766 766 766 766 765 765 765 764 764 764 764 763 763 763 762 761 761 760 759 759 759 758 756 754 753 751 750 749 748 747 747 746 746 745 744 743 742 741 739 738 736 735 733 731 728 725 723 720 717 715 713 710 707 704 700 698 697 694 692 689 688 686 684 681 678 676 674 673 671 668 664 659 655 651 649 647 646 643 640 638 635 633
766 766 766 765 765 765 765 765 765 764 764 764 764 763 763 763 762 762 761 761 760 759 759 759 758 757 756 754 753 751 750 748 746 745 744 744 743 743 742 741 740 739 737 735 734 732 730 729 727 724 722 719 715 712 709 708 706 703 700 697 695 693 690 687 685 684 682 680 677 674 672 671 669 665 661 657 652 648 644 642 640 639 637 634 631 628
765 765 765 765 765 764 764 764 764 764 764 763 763 763 763 762 762 761 761 760 760 759 759 758 757 756 755 754 752 751 750 748 746 745 744 742 741 740 739 738 737 736 734 733 731 729 727 726 724 723 721 719 715 710 707 705 704 702 700 697 694 692 689 685 683 682 680 678 675 673 671 669 667 663 659 654 649 644 639 636 634 634 633 630 628 624
764 764 764 764 764 764 764 764 764 764 763 763 763 762 762 762 761 761 760 760 759 759 758 757 756 755 754 753 751 750 749 748 746 744 743 742 740 739 738 736 734 733 731 729 728 726 724 723 721 720 719 717 714 710 706 703 701 700 699 696 694 691 688 684 681 679 678 676 673 671 669 667 665 662 659 654 648 642 636 632 629 628 627 626 624 621
764 764 764 764 764 763 763 763 763 763 763 762 762 762 761 761 761 760 760 759 759 758 758 757 756 755 753 752 750 749 748 747 745 744 742 741 740 738 736 735 733 731 729 727 725 724 722 720 718 717 716 715 713 710 707 703 700 699 697 695 693 691 688 684 680 678 676 674 671 668 666 664 662 659 657 653 648 641 635 629 625 622 621 621 620 617
763 763 763 763 763 763 763 763 763 762 762 762 761 761 761 760 760 759 759 759 758 757 757 756 755 754 753 751 750 749 747 746 744 743 741 740 739 738 736 734 733 731 729 726 724 721 719 717 715 713 712 712 712 710 707 704 700 698 695 693 691 689 687 683 679 676 674 672 669 666 664 661 659 657 655 652 647 640 634 628 622 618 616 616 615 613